START_TIME,STEP,MOV.,M34,t_acc.,L5,t_acc.,L18,t_acc.,L14,t_acc.
1979-07-22 03:00:24.360 ,6,0,0.,12.0,0.,12.0,0.,12.0,0.,12.0
1979-07-22 03:00:36.360 ,6,0,0.,12.0,0.,12.0,0.,12.0,0.,12.0
1979-07-22 03:00:48.360 ,5,1,0.,12.0,0.,12.0,0.,12.0,0.,12.0
1979-07-22 03:01:00.360 ,5,1,0.,12.0,0.,12.0,0.,12.0,0.,12.0
1979-07-22 03:01:12.360 ,5,0,0.,12.0,0.,12.0,0.,12.0,0.,12.0
1979-07-22 03:01:24.360 ,5,0,0.,12.0,0.,12.0,0.,12.0,0.,12.0
1979-07-22 03:01:36.360 ,4,1,0.,12.0,0.,12.0,0.,12.0,0.,12.0
1979-07-22 03:01:48.360 ,4,1,0.,12.0,0.,12.0,0.,12.0,0.,12.0
1979-07-22 03:02:00.360 ,4,0,0.,12.0,0.,12.0,0.,12.0,0.,12.0
1979-07-22 03:02:12.360 ,4,0,0.,12.0,0.,12.0,0.,12.0,0.,12.0
1979-07-22 03:02:24.360 ,3,1,0.,12.0,0.,12.0,0.,12.0,0.,12.0
1979-07-22 03:02:36.360 ,3,1,0.,12.0,0.,12.0,0.,12.0,0.,12.0
1979-07-22 03:02:48.360 ,3,0,0.,12.0,0.,12.0,0.,12.0,0.,12.0
1979-07-22 03:03:00.360 ,3,0,0.,12.0,0.,12.0,0.,12.0,0.,12.0
1979-07-22 03:03:12.350 ,2,1,0.,12.0,0.,12.0,0.,12.0,1.,12.0
1979-07-22 03:03:24.360 ,2,1,0.,12.0,0.,12.0,0.,12.0,0.,12.0
1979-07-22 03:03:36.350 ,2,0,0.,12.0,0.,12.0,0.,12.0,0.,12.0
1979-07-22 03:03:48.360 ,2,0,0.,12.0,0.,12.0,0.,12.0,0.,12.0
1979-07-22 03:04:00.350 ,1,1,0.,12.0,0.,12.0,0.,12.0,0.,12.0
1979-07-22 03:04:12.350 ,1,1,0.,12.0,0.,12.0,0.,12.0,0.,12.0
1979-07-22 03:04:24.360 ,1,0,0.,12.0,0.,12.0,0.,12.0,0.,12.0
1979-07-22 03:04:36.360 ,1,0,0.,12.0,0.,12.0,0.,12.0,0.,12.0
1979-07-22 03:04:48.360 ,0,1,0.,12.0,0.,12.0,0.,12.0,0.,12.0
1979-07-22 03:05:00.360 ,0,1,0.,12.0,0.,12.0,0.,12.0,0.,12.0
1979-07-22 03:05:12.360 ,0,0,0.,12.0,0.,12.0,0.,12.0,0.,12.0
1979-07-22 03:05:24.360 ,0,0,0.,12.0,0.,12.0,0.,12.0,0.,12.0
1979-07-22 03:05:36.360 ,0,1,0.,12.0,0.,12.0,0.,12.0,0.,12.0
1979-07-22 03:05:48.360 ,0,1,0.,12.0,0.,12.0,0.,12.0,0.,12.0
1979-07-22 03:06:00.360 ,0,0,0.,12.0,0.,12.0,0.,12.0,0.,12.0
1979-07-22 03:06:12.360 ,0,0,0.,12.0,0.,12.0,0.,12.0,0.,12.0
1979-07-22 03:06:24.360 ,1,1,0.,12.0,0.,12.0,0.,12.0,0.,12.0
1979-07-22 03:06:36.360 ,1,1,0.,12.0,0.,12.0,0.,12.0,0.,12.0
1979-07-22 03:06:48.360 ,1,0,0.,12.0,0.,12.0,0.,12.0,0.,12.0
1979-07-22 03:07:00.360 ,1,0,0.,12.0,0.,12.0,0.,12.0,0.,12.0
1979-07-22 03:07:12.360 ,2,1,0.,12.0,0.,12.0,0.,12.0,0.,12.0
1979-07-22 03:07:24.360 ,2,1,0.,12.0,0.,12.0,0.,12.0,0.,12.0
1979-07-22 03:07:36.360 ,2,0,0.,12.0,0.,12.0,0.,12.0,0.,12.0
1979-07-22 03:07:48.360 ,2,0,0.,12.0,0.,12.0,0.,12.0,0.,12.0
1979-07-22 03:08:00.360 ,3,1,0.,12.0,0.,12.0,0.,12.0,0.,12.0
1979-07-22 03:08:12.360 ,3,1,0.,12.0,0.,12.0,0.,12.0,0.,12.0
1979-07-22 03:08:24.360 ,3,0,0.,12.0,0.,12.0,0.,12.0,0.,12.0
1979-07-22 03:08:36.350 ,3,0,0.,12.0,0.,12.0,0.,12.0,0.,12.0
1979-07-22 03:08:48.360 ,4,1,0.,12.0,0.,12.0,0.,12.0,0.,12.0
1979-07-22 03:09:00.360 ,4,1,0.,12.0,0.,12.0,0.,12.0,0.,12.0
1979-07-22 03:09:12.360 ,4,0,0.,12.0,0.,12.0,0.,12.0,0.,12.0
1979-07-22 03:09:24.360 ,4,0,0.,12.0,0.,12.0,0.,12.0,0.,12.0
1979-07-22 03:09:36.360 ,5,1,0.,12.0,0.,12.0,0.,12.0,0.,12.0
1979-07-22 03:09:48.360 ,5,1,0.,12.0,0.,12.0,0.,12.0,0.,12.0
1979-07-22 03:10:00.360 ,5,0,0.,12.0,0.,12.0,0.,12.0,0.,12.0
1979-07-22 03:10:12.360 ,5,0,1.,12.0,0.,12.0,0.,12.0,0.,12.0
1979-07-22 03:10:24.360 ,6,1,0.,12.0,0.,12.0,0.,12.0,0.,12.0
1979-07-22 03:10:36.360 ,6,1,0.,12.0,0.,12.0,0.,12.0,0.,12.0
1979-07-22 03:10:48.360 ,6,0,0.,12.0,0.,12.0,0.,12.0,0.,12.0
1979-07-22 03:11:00.360 ,6,0,0.,12.0,0.,12.0,0.,12.0,0.,12.0
1979-07-22 03:11:12.360 ,7,1,0.,12.0,0.,12.0,0.,12.0,0.,12.0
1979-07-22 03:11:24.360 ,7,1,0.,12.0,0.,12.0,0.,12.0,0.,12.0
1979-07-22 03:11:36.360 ,7,0,0.,12.0,0.,12.0,0.,12.0,0.,12.0
1979-07-22 03:11:48.360 ,7,0,0.,12.0,0.,12.0,0.,12.0,0.,12.0
1979-07-22 03:12:00.360 ,7,1,0.,12.0,0.,12.0,0.,12.0,0.,12.0
1979-07-22 03:12:12.360 ,7,1,0.,12.0,0.,12.0,0.,12.0,0.,12.0
1979-07-22 03:12:24.360 ,7,0,0.,12.0,0.,12.0,0.,12.0,0.,12.0
1979-07-22 03:12:36.360 ,7,0,0.,12.0,0.,12.0,0.,12.0,0.,12.0
1979-07-22 03:12:48.360 ,6,1,0.,12.0,0.,12.0,0.,12.0,0.,12.0
1979-07-22 03:13:00.360 ,6,1,0.,12.0,0.,12.0,0.,12.0,0.,12.0
1979-07-22 03:13:12.360 ,6,0,0.,12.0,0.,12.0,0.,12.0,0.,12.0
1979-07-22 03:13:24.360 ,6,0,0.,12.0,0.,12.0,0.,12.0,0.,12.0
1979-07-22 03:13:36.360 ,5,1,0.,12.0,0.,12.0,0.,12.0,0.,12.0
1979-07-22 03:13:48.360 ,5,1,0.,12.0,0.,12.0,0.,12.0,0.,12.0
1979-07-22 03:14:00.360 ,5,0,0.,12.0,0.,12.0,0.,12.0,0.,12.0
1979-07-22 03:14:12.360 ,5,0,0.,12.0,0.,12.0,0.,12.0,0.,12.0
1979-07-22 03:14:24.360 ,4,1,0.,12.0,0.,12.0,0.,12.0,0.,12.0
1979-07-22 03:14:36.360 ,4,1,0.,12.0,0.,12.0,0.,12.0,0.,12.0
1979-07-22 03:14:48.360 ,4,0,0.,12.0,0.,12.0,0.,12.0,0.,12.0
1979-07-22 03:15:00.360 ,4,0,0.,12.0,0.,12.0,0.,12.0,0.,12.0
1979-07-22 03:15:12.360 ,3,1,0.,12.0,0.,12.0,0.,12.0,0.,12.0
1979-07-22 03:15:24.360 ,3,1,0.,12.0,0.,12.0,0.,12.0,0.,12.0
1979-07-22 03:15:36.360 ,3,0,0.,12.0,0.,12.0,0.,12.0,0.,12.0
1979-07-22 03:15:48.360 ,3,0,0.,12.0,0.,12.0,0.,12.0,0.,12.0
1979-07-22 03:16:00.360 ,2,1,0.,12.0,0.,12.0,0.,12.0,0.,12.0
1979-07-22 03:16:12.360 ,2,1,0.,12.0,0.,12.0,0.,12.0,0.,12.0
1979-07-22 03:16:24.360 ,2,0,0.,12.0,0.,12.0,0.,12.0,0.,12.0
1979-07-22 03:16:36.360 ,2,0,0.,12.0,0.,12.0,0.,12.0,0.,12.0
1979-07-22 03:16:48.360 ,1,1,0.,12.0,0.,12.0,0.,12.0,0.,12.0
1979-07-22 03:17:00.360 ,1,1,0.,12.0,0.,12.0,0.,12.0,0.,12.0
1979-07-22 03:17:12.350 ,1,0,0.,12.0,0.,12.0,0.,12.0,0.,12.0
1979-07-22 03:17:24.350 ,1,0,0.,12.0,0.,12.0,0.,12.0,0.,12.0
1979-07-22 03:17:36.350 ,0,1,0.,12.0,0.,12.0,0.,12.0,0.,12.0
1979-07-22 03:17:48.350 ,0,1,0.,12.0,0.,12.0,0.,12.0,0.,12.0
1979-07-22 03:18:00.350 ,0,0,0.,12.0,0.,12.0,0.,12.0,0.,12.0
1979-07-22 03:18:12.350 ,0,0,0.,12.0,0.,12.0,0.,12.0,0.,12.0
1979-07-22 03:18:24.350 ,0,1,0.,12.0,0.,12.0,0.,12.0,0.,12.0
1979-07-22 03:18:36.350 ,0,1,0.,12.0,0.,12.0,0.,12.0,0.,12.0
1979-07-22 03:18:48.350 ,0,0,0.,12.0,0.,12.0,0.,12.0,0.,12.0
1979-07-22 03:19:00.350 ,0,0,0.,12.0,0.,12.0,0.,12.0,0.,12.0
1979-07-22 03:19:12.350 ,1,1,0.,12.0,0.,12.0,0.,12.0,0.,12.0
1979-07-22 03:19:24.350 ,1,1,0.,12.0,0.,12.0,0.,12.0,0.,12.0
1979-07-22 03:19:36.350 ,1,0,0.,12.0,0.,12.0,0.,12.0,0.,12.0
1979-07-22 03:19:48.350 ,1,0,0.,12.0,0.,12.0,0.,12.0,0.,12.0
1979-07-22 03:20:00.350 ,2,1,0.,12.0,0.,12.0,0.,12.0,0.,12.0
1979-07-22 03:20:12.350 ,2,1,0.,12.0,0.,12.0,0.,12.0,0.,12.0
1979-07-22 03:20:24.350 ,2,0,0.,12.0,0.,12.0,0.,12.0,0.,12.0
1979-07-22 03:20:36.350 ,2,0,0.,12.0,0.,12.0,0.,12.0,0.,12.0
1979-07-22 03:20:48.350 ,3,1,0.,12.0,0.,12.0,0.,12.0,0.,12.0
1979-07-22 03:21:00.350 ,3,1,0.,12.0,0.,12.0,0.,12.0,0.,12.0
1979-07-22 03:21:12.350 ,3,0,0.,12.0,0.,12.0,0.,12.0,0.,12.0
1979-07-22 03:21:24.350 ,3,0,0.,12.0,0.,12.0,0.,12.0,0.,12.0
1979-07-22 03:21:36.350 ,4,1,0.,12.0,0.,12.0,0.,12.0,0.,12.0
1979-07-22 03:21:48.350 ,4,1,0.,12.0,0.,12.0,0.,12.0,0.,12.0
1979-07-22 03:22:00.350 ,4,0,0.,12.0,0.,12.0,0.,12.0,0.,12.0
1979-07-22 03:22:12.350 ,4,0,0.,12.0,0.,12.0,0.,12.0,0.,12.0
1979-07-22 03:22:24.350 ,5,1,0.,12.0,0.,12.0,0.,12.0,0.,12.0
1979-07-22 03:22:36.350 ,5,1,0.,12.0,0.,12.0,0.,12.0,0.,12.0
1979-07-22 03:22:48.350 ,0,0,0.,12.0,0.,12.0,0.,12.0,0.,12.0
1979-07-22 03:23:00.350 ,0,0,0.,12.0,0.,12.0,0.,12.0,0.,12.0
1979-07-22 03:23:12.350 ,6,1,0.,12.0,0.,12.0,0.,12.0,0.,12.0
1979-07-22 03:23:24.350 ,6,1,0.,12.0,0.,12.0,0.,12.0,0.,12.0
1979-07-22 03:23:36.350 ,6,0,0.,12.0,0.,12.0,0.,12.0,0.,12.0
1979-07-22 03:23:48.350 ,6,0,0.,12.0,0.,12.0,0.,12.0,0.,12.0
1979-07-22 03:24:00.350 ,7,1,0.,12.0,0.,12.0,0.,12.0,0.,12.0
1979-07-22 03:24:12.350 ,7,1,0.,12.0,0.,12.0,0.,12.0,0.,12.0
1979-07-22 03:24:24.350 ,7,0,0.,12.0,0.,12.0,0.,12.0,0.,12.0
1979-07-22 03:24:36.350 ,7,0,0.,12.0,0.,12.0,0.,12.0,0.,12.0
1979-07-22 03:24:48.350 ,7,1,0.,12.0,0.,12.0,0.,12.0,0.,12.0
1979-07-22 03:25:00.350 ,7,1,0.,12.0,0.,12.0,0.,12.0,0.,12.0
1979-07-22 03:25:12.350 ,7,0,0.,12.0,0.,12.0,0.,12.0,0.,12.0
1979-07-22 03:25:24.350 ,7,0,0.,12.0,0.,12.0,0.,12.0,0.,12.0
1979-07-22 03:25:36.350 ,6,1,0.,12.0,0.,12.0,0.,12.0,0.,12.0
1979-07-22 03:25:48.350 ,6,1,0.,12.0,0.,12.0,0.,12.0,0.,12.0
1979-07-22 03:26:00.350 ,6,0,0.,12.0,0.,12.0,0.,12.0,0.,12.0
1979-07-22 03:26:12.350 ,6,0,0.,12.0,0.,12.0,0.,12.0,0.,12.0
1979-07-22 03:26:24.350 ,5,1,0.,12.0,0.,12.0,0.,12.0,0.,12.0
1979-07-22 03:26:36.350 ,5,1,0.,12.0,0.,12.0,0.,12.0,0.,12.0
1979-07-22 03:26:48.350 ,5,0,0.,12.0,0.,12.0,0.,12.0,0.,12.0
1979-07-22 03:27:00.350 ,5,0,0.,12.0,0.,12.0,0.,12.0,0.,12.0
1979-07-22 03:27:12.350 ,4,1,0.,12.0,0.,12.0,0.,12.0,0.,12.0
1979-07-22 03:27:24.350 ,4,1,0.,12.0,0.,12.0,0.,12.0,0.,12.0
1979-07-22 03:27:36.350 ,4,0,0.,12.0,0.,12.0,0.,12.0,0.,12.0
1979-07-22 03:27:48.350 ,4,0,0.,12.0,0.,12.0,0.,12.0,0.,12.0
1979-07-22 03:28:00.350 ,3,1,0.,12.0,0.,12.0,0.,12.0,0.,12.0
1979-07-22 03:28:12.350 ,3,1,0.,12.0,0.,12.0,0.,12.0,0.,12.0
1979-07-22 03:28:24.350 ,3,0,0.,12.0,0.,12.0,0.,12.0,0.,12.0
1979-07-22 03:28:36.350 ,3,0,0.,12.0,0.,12.0,0.,12.0,0.,12.0
1979-07-22 03:28:48.350 ,2,1,0.,12.0,0.,12.0,0.,12.0,0.,12.0
1979-07-22 03:29:00.350 ,2,1,0.,12.0,0.,12.0,0.,12.0,0.,12.0
1979-07-22 03:29:12.350 ,2,0,0.,12.0,0.,12.0,0.,12.0,0.,12.0
1979-07-22 03:29:24.350 ,2,0,0.,12.0,0.,12.0,0.,12.0,0.,12.0
1979-07-22 03:29:36.350 ,1,1,0.,12.0,0.,12.0,0.,12.0,0.,12.0
1979-07-22 03:29:48.350 ,1,1,0.,12.0,0.,12.0,0.,12.0,0.,12.0
1979-07-22 03:30:00.350 ,1,0,0.,12.0,0.,12.0,0.,12.0,0.,12.0
1979-07-22 03:30:12.350 ,1,0,0.,12.0,0.,12.0,0.,12.0,0.,12.0
1979-07-22 03:30:24.350 ,0,1,0.,12.0,0.,12.0,0.,12.0,0.,12.0
1979-07-22 03:30:36.350 ,0,1,0.,12.0,0.,12.0,0.,12.0,0.,12.0
1979-07-22 03:30:48.350 ,0,0,0.,12.0,0.,12.0,0.,12.0,0.,12.0
1979-07-22 03:31:00.350 ,0,0,0.,12.0,0.,12.0,0.,12.0,0.,12.0
1979-07-22 03:31:12.350 ,0,1,0.,12.0,0.,12.0,0.,12.0,0.,12.0
1979-07-22 03:31:24.350 ,0,1,0.,12.0,0.,12.0,0.,12.0,0.,12.0
1979-07-22 03:31:36.350 ,0,0,0.,12.0,0.,12.0,0.,12.0,0.,12.0
1979-07-22 03:31:48.350 ,0,0,0.,12.0,0.,12.0,0.,12.0,0.,12.0
1979-07-22 03:32:00.350 ,1,1,0.,12.0,0.,12.0,0.,12.0,0.,12.0
1979-07-22 03:32:12.350 ,1,1,0.,12.0,0.,12.0,0.,12.0,0.,12.0
1979-07-22 03:32:24.350 ,1,0,0.,12.0,0.,12.0,0.,12.0,0.,12.0
1979-07-22 03:32:36.350 ,1,0,0.,12.0,0.,12.0,0.,12.0,0.,12.0
1979-07-22 03:32:48.350 ,2,1,0.,12.0,0.,12.0,0.,12.0,0.,12.0
1979-07-22 03:33:00.350 ,2,1,0.,12.0,0.,12.0,0.,12.0,0.,12.0
1979-07-22 03:33:12.350 ,2,0,0.,12.0,0.,12.0,0.,12.0,0.,12.0
1979-07-22 03:33:24.350 ,2,0,0.,12.0,0.,12.0,0.,12.0,0.,12.0
1979-07-22 03:33:36.350 ,3,1,0.,12.0,0.,12.0,0.,12.0,0.,12.0
1979-07-22 03:33:48.350 ,3,1,0.,12.0,0.,12.0,0.,12.0,0.,12.0
1979-07-22 03:34:00.350 ,3,0,0.,12.0,0.,12.0,0.,12.0,0.,12.0
1979-07-22 03:34:12.350 ,3,0,0.,12.0,0.,12.0,0.,12.0,0.,12.0
1979-07-22 03:34:24.350 ,4,1,0.,12.0,0.,12.0,0.,12.0,0.,12.0
1979-07-22 03:34:36.350 ,4,1,0.,12.0,0.,12.0,0.,12.0,0.,12.0
1979-07-22 03:34:48.350 ,4,0,0.,12.0,0.,12.0,0.,12.0,0.,12.0
1979-07-22 03:35:00.350 ,4,0,1.,12.0,0.,12.0,0.,12.0,0.,12.0
1979-07-22 03:35:12.350 ,5,1,0.,12.0,0.,12.0,0.,12.0,0.,12.0
1979-07-22 03:35:24.350 ,5,1,0.,12.0,0.,12.0,0.,12.0,0.,12.0
1979-07-22 03:35:36.350 ,5,0,0.,12.0,0.,12.0,0.,12.0,0.,12.0
1979-07-22 03:35:48.350 ,5,0,0.,12.0,0.,12.0,0.,12.0,0.,12.0
1979-07-22 03:36:00.350 ,6,1,0.,12.0,0.,12.0,0.,12.0,0.,12.0
1979-07-22 03:36:12.350 ,6,1,0.,12.0,0.,12.0,0.,12.0,0.,12.0
1979-07-22 03:36:24.350 ,6,0,0.,12.0,0.,12.0,0.,12.0,0.,12.0
1979-07-22 03:36:36.350 ,6,0,0.,12.0,0.,12.0,0.,12.0,0.,12.0
1979-07-22 03:36:48.350 ,7,1,0.,12.0,0.,12.0,0.,12.0,0.,12.0
1979-07-22 03:37:00.350 ,7,1,0.,12.0,0.,12.0,0.,12.0,0.,12.0
1979-07-22 03:37:12.350 ,7,0,0.,12.0,0.,12.0,0.,12.0,0.,12.0
1979-07-22 03:37:24.350 ,7,0,0.,12.0,0.,12.0,0.,12.0,0.,12.0
1979-07-22 03:37:36.350 ,7,1,0.,12.0,0.,12.0,0.,12.0,0.,12.0
1979-07-22 03:37:48.350 ,7,1,0.,12.0,0.,12.0,0.,12.0,0.,12.0
1979-07-22 03:38:00.350 ,7,0,0.,12.0,0.,12.0,0.,12.0,0.,12.0
1979-07-22 03:38:12.350 ,7,0,0.,12.0,0.,12.0,0.,12.0,0.,12.0
1979-07-22 03:38:24.350 ,6,1,0.,12.0,0.,12.0,0.,12.0,0.,12.0
1979-07-22 03:38:36.350 ,6,1,0.,12.0,0.,12.0,0.,12.0,0.,12.0
1979-07-22 03:38:48.350 ,6,0,0.,12.0,0.,12.0,0.,12.0,0.,12.0
1979-07-22 03:39:00.350 ,6,0,0.,12.0,0.,12.0,0.,12.0,0.,12.0
1979-07-22 03:39:12.350 ,5,1,0.,12.0,0.,12.0,0.,12.0,0.,12.0
1979-07-22 03:39:24.350 ,5,1,0.,12.0,0.,12.0,0.,12.0,0.,12.0
1979-07-22 03:39:36.350 ,5,0,0.,12.0,0.,12.0,0.,12.0,0.,12.0
1979-07-22 03:39:48.350 ,5,0,0.,12.0,0.,12.0,0.,12.0,0.,12.0
1979-07-22 03:40:00.350 ,4,1,0.,12.0,0.,12.0,0.,12.0,0.,12.0
1979-07-22 03:40:12.350 ,4,1,0.,12.0,0.,12.0,0.,12.0,0.,12.0
1979-07-22 03:40:24.350 ,4,0,0.,12.0,0.,12.0,0.,12.0,0.,12.0
1979-07-22 03:40:36.350 ,4,0,0.,12.0,0.,12.0,0.,12.0,0.,12.0
1979-07-22 03:40:48.350 ,3,1,0.,12.0,0.,12.0,0.,12.0,0.,12.0
1979-07-22 03:41:00.350 ,3,1,0.,12.0,0.,12.0,0.,12.0,0.,12.0
1979-07-22 03:41:12.350 ,3,0,0.,12.0,0.,12.0,0.,12.0,0.,12.0
1979-07-22 03:41:24.350 ,3,0,0.,12.0,0.,12.0,0.,12.0,0.,12.0
1979-07-22 03:41:36.350 ,2,1,0.,12.0,0.,12.0,0.,12.0,0.,12.0
1979-07-22 03:41:48.350 ,2,1,0.,12.0,0.,12.0,0.,12.0,0.,12.0
1979-07-22 03:42:00.350 ,2,0,0.,12.0,0.,12.0,0.,12.0,0.,12.0
1979-07-22 03:42:12.350 ,2,0,0.,12.0,0.,12.0,0.,12.0,0.,12.0
1979-07-22 03:42:24.350 ,1,1,0.,12.0,0.,12.0,0.,12.0,0.,12.0
1979-07-22 03:42:36.350 ,1,1,0.,12.0,0.,12.0,0.,12.0,0.,12.0
1979-07-22 03:42:48.350 ,1,0,0.,12.0,0.,12.0,0.,12.0,0.,12.0
1979-07-22 03:43:00.350 ,1,0,0.,12.0,0.,12.0,0.,12.0,0.,12.0
1979-07-22 03:43:12.350 ,0,1,0.,12.0,0.,12.0,0.,12.0,0.,12.0
1979-07-22 03:43:24.350 ,0,1,0.,12.0,0.,12.0,0.,12.0,0.,12.0
1979-07-22 03:43:36.350 ,0,0,0.,12.0,0.,12.0,0.,12.0,0.,12.0
1979-07-22 03:43:48.350 ,0,0,0.,12.0,0.,12.0,0.,12.0,0.,12.0
1979-07-22 03:44:00.350 ,0,1,0.,12.0,0.,12.0,0.,12.0,0.,12.0
1979-07-22 03:44:12.350 ,0,1,0.,12.0,0.,12.0,0.,12.0,0.,12.0
1979-07-22 03:44:24.350 ,0,0,0.,12.0,0.,12.0,0.,12.0,0.,12.0
1979-07-22 03:44:36.350 ,0,0,0.,12.0,0.,12.0,0.,12.0,0.,12.0
1979-07-22 03:44:48.350 ,1,1,0.,12.0,0.,12.0,0.,12.0,0.,12.0
1979-07-22 03:45:00.350 ,1,1,0.,12.0,0.,12.0,0.,12.0,0.,12.0
1979-07-22 03:45:12.350 ,1,0,0.,12.0,0.,12.0,0.,12.0,0.,12.0
1979-07-22 03:45:24.350 ,1,0,0.,12.0,0.,12.0,0.,12.0,0.,12.0
1979-07-22 03:45:36.350 ,2,1,0.,12.0,0.,12.0,0.,12.0,0.,12.0
1979-07-22 03:45:48.350 ,2,1,0.,12.0,0.,12.0,0.,12.0,0.,12.0
1979-07-22 03:46:00.350 ,2,0,0.,12.0,0.,12.0,0.,12.0,0.,12.0
1979-07-22 03:46:12.350 ,2,0,0.,12.0,0.,12.0,0.,12.0,0.,12.0
1979-07-22 03:46:24.350 ,3,1,0.,12.0,0.,12.0,0.,12.0,0.,12.0
1979-07-22 03:46:36.350 ,3,1,0.,12.0,0.,12.0,0.,12.0,0.,12.0
1979-07-22 03:46:48.350 ,3,0,0.,12.0,0.,12.0,0.,12.0,0.,12.0
1979-07-22 03:47:00.350 ,3,0,0.,12.0,0.,12.0,0.,12.0,0.,12.0
1979-07-22 03:47:12.350 ,4,1,0.,12.0,0.,12.0,0.,12.0,0.,12.0
1979-07-22 03:47:24.350 ,4,1,0.,12.0,0.,12.0,0.,12.0,0.,12.0
1979-07-22 03:47:36.350 ,4,0,0.,12.0,0.,12.0,0.,12.0,0.,12.0
1979-07-22 03:47:48.350 ,4,0,0.,12.0,0.,12.0,0.,12.0,0.,12.0
1979-07-22 03:48:00.350 ,5,1,0.,12.0,0.,12.0,0.,12.0,0.,12.0
1979-07-22 03:48:12.350 ,5,1,0.,12.0,0.,12.0,0.,12.0,0.,12.0
1979-07-22 03:48:24.350 ,5,0,0.,12.0,0.,12.0,0.,12.0,0.,12.0
1979-07-22 03:48:36.350 ,5,0,0.,12.0,0.,12.0,0.,12.0,0.,12.0
1979-07-22 03:48:48.350 ,6,1,0.,12.0,0.,12.0,0.,12.0,0.,12.0
1979-07-22 03:49:00.350 ,6,1,0.,12.0,0.,12.0,0.,12.0,0.,12.0
1979-07-22 03:49:12.350 ,6,0,0.,12.0,0.,12.0,0.,12.0,0.,12.0
1979-07-22 03:49:24.350 ,6,0,0.,12.0,0.,12.0,0.,12.0,0.,12.0
1979-07-22 03:49:36.350 ,7,1,0.,12.0,0.,12.0,0.,12.0,0.,12.0
1979-07-22 03:49:48.350 ,7,1,0.,12.0,0.,12.0,0.,12.0,0.,12.0
1979-07-22 03:50:00.350 ,7,0,0.,12.0,0.,12.0,0.,12.0,0.,12.0
1979-07-22 03:50:12.350 ,7,0,0.,12.0,0.,12.0,0.,12.0,0.,12.0
1979-07-22 03:50:24.350 ,7,1,0.,12.0,0.,12.0,0.,12.0,0.,12.0
1979-07-22 03:50:36.350 ,7,1,0.,12.0,0.,12.0,0.,12.0,0.,12.0
1979-07-22 03:50:48.350 ,7,0,0.,12.0,0.,12.0,0.,12.0,0.,12.0
1979-07-22 03:51:00.350 ,7,0,0.,12.0,0.,12.0,0.,12.0,0.,12.0
1979-07-22 03:51:12.350 ,6,1,0.,12.0,0.,12.0,0.,12.0,0.,12.0
1979-07-22 03:51:24.350 ,6,1,0.,12.0,0.,12.0,0.,12.0,0.,12.0
1979-07-22 03:51:36.350 ,6,0,0.,12.0,0.,12.0,0.,12.0,0.,12.0
1979-07-22 03:51:48.350 ,6,0,0.,12.0,0.,12.0,0.,12.0,0.,12.0
1979-07-22 03:52:00.350 ,5,1,0.,12.0,0.,12.0,0.,12.0,0.,12.0
1979-07-22 03:52:12.350 ,5,1,0.,12.0,0.,12.0,0.,12.0,0.,12.0
1979-07-22 03:52:24.350 ,5,0,0.,12.0,0.,12.0,0.,12.0,0.,12.0
1979-07-22 03:52:36.350 ,5,0,,0,,0,,0,,0
1979-07-22 03:52:48.350 ,4,1,0.,12.0,0.,12.0,0.,12.0,0.,12.0
1979-07-22 03:53:00.350 ,4,1,0.,12.0,0.,12.0,0.,12.0,0.,12.0
1979-07-22 03:53:12.350 ,4,0,0.,12.0,0.,12.0,0.,12.0,0.,12.0
1979-07-22 03:53:24.350 ,4,0,0.,12.0,0.,12.0,0.,12.0,0.,12.0
1979-07-22 03:53:36.350 ,3,1,0.,12.0,0.,12.0,0.,12.0,0.,12.0
1979-07-22 03:53:48.350 ,3,1,0.,12.0,0.,12.0,0.,12.0,0.,12.0
1979-07-22 03:54:00.350 ,3,0,0.,12.0,0.,12.0,0.,12.0,0.,12.0
1979-07-22 03:54:12.350 ,3,0,0.,12.0,0.,12.0,0.,12.0,0.,12.0
1979-07-22 03:54:24.350 ,2,1,0.,12.0,0.,12.0,0.,12.0,0.,12.0
1979-07-22 03:54:36.350 ,2,1,0.,12.0,0.,12.0,0.,12.0,0.,12.0
1979-07-22 03:54:48.350 ,2,0,0.,12.0,0.,12.0,0.,12.0,0.,12.0
1979-07-22 03:55:00.350 ,2,0,0.,12.0,0.,12.0,0.,12.0,0.,12.0
1979-07-22 03:55:12.350 ,1,1,0.,12.0,0.,12.0,0.,12.0,0.,12.0
1979-07-22 03:55:24.350 ,1,1,0.,12.0,0.,12.0,0.,12.0,0.,12.0
1979-07-22 03:55:36.350 ,1,0,0.,12.0,0.,12.0,0.,12.0,0.,12.0
1979-07-22 03:55:48.350 ,1,0,0.,12.0,0.,12.0,0.,12.0,0.,12.0
1979-07-22 03:56:00.350 ,0,1,0.,12.0,0.,12.0,0.,12.0,0.,12.0
1979-07-22 03:56:12.350 ,0,1,0.,12.0,0.,12.0,0.,12.0,0.,12.0
1979-07-22 03:56:24.350 ,0,0,0.,12.0,0.,12.0,0.,12.0,0.,12.0
1979-07-22 03:56:36.350 ,0,0,0.,12.0,0.,12.0,0.,12.0,0.,12.0
1979-07-22 03:56:48.350 ,0,1,0.,12.0,0.,12.0,0.,12.0,0.,12.0
1979-07-22 03:57:00.350 ,0,1,0.,12.0,0.,12.0,0.,12.0,0.,12.0
1979-07-22 03:57:12.350 ,0,0,0.,12.0,0.,12.0,0.,12.0,0.,12.0
1979-07-22 03:57:24.350 ,0,0,0.,12.0,0.,12.0,0.,12.0,0.,12.0
1979-07-22 03:57:36.350 ,1,1,0.,12.0,0.,12.0,0.,12.0,0.,12.0
1979-07-22 03:57:48.350 ,1,1,0.,12.0,0.,12.0,0.,12.0,0.,12.0
1979-07-22 03:58:00.350 ,1,0,0.,12.0,0.,12.0,0.,12.0,0.,12.0
1979-07-22 03:58:12.350 ,1,0,0.,12.0,0.,12.0,0.,12.0,0.,12.0
1979-07-22 03:58:24.350 ,2,1,0.,12.0,0.,12.0,0.,12.0,0.,12.0
1979-07-22 03:58:36.350 ,2,1,0.,12.0,0.,12.0,0.,12.0,0.,12.0
1979-07-22 03:58:48.350 ,2,0,0.,12.0,0.,12.0,0.,12.0,0.,12.0
1979-07-22 03:59:00.350 ,2,0,0.,12.0,0.,12.0,0.,12.0,0.,12.0
1979-07-22 03:59:12.350 ,3,1,0.,12.0,0.,12.0,0.,12.0,0.,12.0
1979-07-22 03:59:24.350 ,3,1,0.,12.0,0.,12.0,0.,12.0,0.,12.0
1979-07-22 03:59:36.350 ,3,0,0.,12.0,0.,12.0,0.,12.0,0.,12.0
1979-07-22 03:59:48.350 ,3,0,0.,12.0,0.,12.0,0.,12.0,0.,12.0
1979-07-22 04:00:00.350 ,4,1,0.,12.0,0.,12.0,0.,12.0,0.,12.0
1979-07-22 04:00:12.350 ,4,1,0.,12.0,0.,12.0,0.,12.0,0.,12.0
1979-07-22 04:00:24.350 ,4,0,0.,12.0,0.,12.0,0.,12.0,0.,12.0
1979-07-22 04:00:36.350 ,4,0,0.,12.0,0.,12.0,0.,12.0,0.,12.0
1979-07-22 04:00:48.350 ,5,1,0.,12.0,0.,12.0,0.,12.0,0.,12.0
1979-07-22 04:01:00.350 ,5,1,0.,12.0,0.,12.0,0.,12.0,0.,12.0
1979-07-22 04:01:12.350 ,5,0,0.,12.0,0.,12.0,0.,12.0,0.,12.0
1979-07-22 04:01:24.350 ,5,0,0.,12.0,0.,12.0,0.,12.0,0.,12.0
1979-07-22 04:01:36.350 ,6,1,0.,12.0,0.,12.0,0.,12.0,0.,12.0
1979-07-22 04:01:48.350 ,6,1,0.,12.0,0.,12.0,0.,12.0,0.,12.0
1979-07-22 04:02:00.350 ,6,0,0.,12.0,0.,12.0,0.,12.0,0.,12.0
1979-07-22 04:02:12.350 ,6,0,0.,12.0,0.,12.0,0.,12.0,0.,12.0
1979-07-22 04:02:24.350 ,7,1,0.,12.0,0.,12.0,0.,12.0,0.,12.0
1979-07-22 04:02:36.350 ,7,1,0.,12.0,0.,12.0,0.,12.0,0.,12.0
1979-07-22 04:02:48.350 ,7,0,0.,12.0,0.,12.0,0.,12.0,0.,12.0
1979-07-22 04:03:00.350 ,7,0,0.,12.0,0.,12.0,0.,12.0,0.,12.0
1979-07-22 04:03:12.350 ,7,1,0.,12.0,0.,12.0,0.,12.0,0.,12.0
1979-07-22 04:03:24.350 ,7,1,0.,12.0,0.,12.0,0.,12.0,0.,12.0
1979-07-22 04:03:36.350 ,7,0,0.,12.0,0.,12.0,0.,12.0,0.,12.0
1979-07-22 04:03:48.350 ,7,0,0.,12.0,0.,12.0,0.,12.0,0.,12.0
1979-07-22 04:04:00.350 ,6,1,0.,12.0,0.,12.0,0.,12.0,0.,12.0
1979-07-22 04:04:12.350 ,6,1,0.,12.0,0.,12.0,0.,12.0,0.,12.0
1979-07-22 04:04:24.350 ,6,0,0.,12.0,0.,12.0,0.,12.0,0.,12.0
1979-07-22 04:04:36.350 ,6,0,0.,12.0,0.,12.0,0.,12.0,0.,12.0
1979-07-22 04:04:48.350 ,5,1,0.,12.0,0.,12.0,0.,12.0,0.,12.0
1979-07-22 04:05:00.350 ,5,1,0.,12.0,0.,12.0,0.,12.0,0.,12.0
1979-07-22 04:05:12.350 ,5,0,0.,12.0,0.,12.0,0.,12.0,0.,12.0
1979-07-22 04:05:24.350 ,5,0,0.,12.0,0.,12.0,0.,12.0,0.,12.0
1979-07-22 04:05:36.350 ,4,1,0.,12.0,0.,12.0,0.,12.0,0.,12.0
1979-07-22 04:05:48.350 ,4,1,0.,12.0,0.,12.0,0.,12.0,0.,12.0
1979-07-22 04:06:00.350 ,4,0,0.,12.0,0.,12.0,0.,12.0,0.,12.0
1979-07-22 04:06:12.350 ,4,0,0.,12.0,0.,12.0,0.,12.0,0.,12.0
1979-07-22 04:06:24.350 ,3,1,0.,12.0,0.,12.0,0.,12.0,0.,12.0
1979-07-22 04:06:36.350 ,3,1,0.,12.0,0.,12.0,0.,12.0,0.,12.0
1979-07-22 04:06:48.350 ,3,0,0.,12.0,0.,12.0,0.,12.0,0.,12.0
1979-07-22 04:07:00.350 ,3,0,0.,12.0,0.,12.0,0.,12.0,0.,12.0
1979-07-22 04:07:12.350 ,2,1,0.,12.0,0.,12.0,0.,12.0,0.,12.0
1979-07-22 04:07:24.350 ,2,1,0.,12.0,0.,12.0,0.,12.0,0.,12.0
1979-07-22 04:07:36.350 ,2,0,0.,12.0,0.,12.0,0.,12.0,0.,12.0
1979-07-22 04:07:48.350 ,2,0,0.,12.0,0.,12.0,0.,12.0,0.,12.0
1979-07-22 04:08:00.350 ,1,1,0.,12.0,0.,12.0,0.,12.0,0.,12.0
1979-07-22 04:08:12.350 ,1,1,0.,12.0,0.,12.0,0.,12.0,0.,12.0
1979-07-22 04:08:24.350 ,1,0,0.,12.0,0.,12.0,0.,12.0,0.,12.0
1979-07-22 04:08:36.350 ,1,0,0.,12.0,0.,12.0,0.,12.0,0.,12.0
1979-07-22 04:08:48.350 ,0,1,0.,12.0,0.,12.0,0.,12.0,0.,12.0
1979-07-22 04:09:00.350 ,0,1,0.,12.0,0.,12.0,0.,12.0,0.,12.0
1979-07-22 04:09:12.350 ,0,0,0.,12.0,0.,12.0,0.,12.0,0.,12.0
1979-07-22 04:09:24.350 ,0,0,0.,12.0,0.,12.0,0.,12.0,0.,12.0
1979-07-22 04:09:36.350 ,0,1,0.,12.0,0.,12.0,0.,12.0,0.,12.0
1979-07-22 04:09:48.350 ,0,1,0.,12.0,1.,12.0,0.,12.0,0.,12.0
1979-07-22 04:10:00.350 ,0,0,0.,12.0,0.,12.0,0.,12.0,0.,12.0
1979-07-22 04:10:12.350 ,0,0,0.,12.0,0.,12.0,0.,12.0,0.,12.0
1979-07-22 04:10:24.350 ,1,1,0.,12.0,0.,12.0,0.,12.0,0.,12.0
1979-07-22 04:10:36.350 ,1,1,0.,12.0,0.,12.0,0.,12.0,0.,12.0
1979-07-22 04:10:48.350 ,1,0,0.,12.0,0.,12.0,0.,12.0,0.,12.0
1979-07-22 04:11:00.350 ,1,0,0.,12.0,0.,12.0,0.,12.0,0.,12.0
1979-07-22 04:11:12.350 ,2,1,0.,12.0,0.,12.0,0.,12.0,0.,12.0
1979-07-22 04:11:24.350 ,2,1,0.,12.0,0.,12.0,0.,12.0,0.,12.0
1979-07-22 04:11:36.350 ,2,0,0.,12.0,0.,12.0,0.,12.0,0.,12.0
1979-07-22 04:11:48.350 ,2,0,0.,12.0,0.,12.0,0.,12.0,0.,12.0
1979-07-22 04:12:00.350 ,3,1,0.,12.0,0.,12.0,0.,12.0,0.,12.0
1979-07-22 04:12:12.350 ,3,1,0.,12.0,0.,12.0,0.,12.0,0.,12.0
1979-07-22 04:12:24.350 ,3,0,0.,12.0,0.,12.0,0.,12.0,0.,12.0
1979-07-22 04:12:36.350 ,3,0,0.,12.0,0.,12.0,0.,12.0,0.,12.0
1979-07-22 04:12:48.350 ,4,1,0.,12.0,0.,12.0,0.,12.0,0.,12.0
1979-07-22 04:13:00.350 ,4,1,0.,12.0,0.,12.0,0.,12.0,0.,12.0
1979-07-22 04:13:12.350 ,4,0,0.,12.0,0.,12.0,0.,12.0,0.,12.0
1979-07-22 04:13:24.350 ,4,0,0.,12.0,0.,12.0,0.,12.0,0.,12.0
1979-07-22 04:13:36.350 ,5,1,0.,12.0,0.,12.0,0.,12.0,0.,12.0
1979-07-22 04:13:48.350 ,5,1,0.,12.0,0.,12.0,0.,12.0,0.,12.0
1979-07-22 04:14:00.350 ,5,0,0.,12.0,0.,12.0,0.,12.0,0.,12.0
1979-07-22 04:14:12.350 ,5,0,0.,12.0,0.,12.0,0.,12.0,0.,12.0
1979-07-22 04:14:24.350 ,6,1,0.,12.0,0.,12.0,0.,12.0,0.,12.0
1979-07-22 04:14:36.350 ,6,1,0.,12.0,0.,12.0,0.,12.0,0.,12.0
1979-07-22 04:14:48.350 ,6,0,0.,12.0,0.,12.0,0.,12.0,0.,12.0
1979-07-22 04:15:00.350 ,6,0,0.,12.0,0.,12.0,0.,12.0,0.,12.0
1979-07-22 04:15:12.350 ,7,1,0.,12.0,0.,12.0,0.,12.0,0.,12.0
1979-07-22 04:15:24.350 ,7,1,0.,12.0,0.,12.0,0.,12.0,0.,12.0
1979-07-22 04:15:36.350 ,7,0,0.,12.0,0.,12.0,0.,12.0,0.,12.0
1979-07-22 04:15:48.350 ,7,0,0.,12.0,0.,12.0,0.,12.0,0.,12.0
1979-07-22 04:16:00.350 ,7,1,0.,12.0,0.,12.0,0.,12.0,0.,12.0
1979-07-22 04:16:12.350 ,7,1,0.,12.0,0.,12.0,0.,12.0,0.,12.0
1979-07-22 04:16:24.350 ,7,0,0.,12.0,0.,12.0,0.,12.0,0.,12.0
1979-07-22 04:16:36.350 ,7,0,0.,12.0,0.,12.0,0.,12.0,0.,12.0
1979-07-22 04:16:48.350 ,6,1,0.,12.0,0.,12.0,0.,12.0,0.,12.0
1979-07-22 04:17:00.350 ,6,1,0.,12.0,0.,12.0,0.,12.0,0.,12.0
1979-07-22 04:17:12.350 ,6,0,0.,12.0,0.,12.0,0.,12.0,0.,12.0
1979-07-22 04:17:24.350 ,6,0,0.,12.0,0.,12.0,0.,12.0,0.,12.0